Le nostre stazioni meteo in Italia

Pubblicità
Il mio iltempo24.it
Arezzo, Italia (16172): Temperatura & dewpoint: 10.07.2018 20:00:00 - 16.07.2018 20:00:00 (CEST)Arezzo, Italia (16172): velocità del vento: 10.07.2018 20:00:00 - 16.07.2018 20:00:00 (CEST)Arezzo, Italia (16172): direzione del vento: 10.07.2018 20:00:00 - 16.07.2018 20:00:00 (CEST)Arezzo, Italia (16172): reduced air pressure: 10.07.2018 20:00:00 - 16.07.2018 20:00:00 (CEST)Arezzo, Italia (16172): visibility: 10.07.2018 20:00:00 - 16.07.2018 20:00:00 (CEST)
Data & Tempo tt [°C] td [°C] ff [km/h] ff [kn] dd ppp [hPa] vv [km]
16.07.2018 20:00:00 28,2 17,7 18 10 SSO 1009,2 18
16.07.2018 19:00:00 - - - - - - -
16.07.2018 18:00:00 - - - - - - -
16.07.2018 17:00:00 30,0 19,7 13 7 SSO 1010,1 18
16.07.2018 16:00:00 - - - - - - -
16.07.2018 15:00:00 - - - - - - -
16.07.2018 14:00:00 29,0 16,6 11 6 SSO 1012,6 18
16.07.2018 13:00:00 - - - - - - -
16.07.2018 12:00:00 - - - - - - -
16.07.2018 11:00:00 27,6 16,9 5 3 SO 1013,0 18
16.07.2018 10:00:00 - - - - - - -
16.07.2018 09:00:00 - - - - - - -
16.07.2018 08:00:00 19,6 17,0 0 0 N 1014,0 14
16.07.2018 07:00:00 - - - - - - -
16.07.2018 06:00:00 - - - - - - -
16.07.2018 05:00:00 - - - - - - -
16.07.2018 04:00:00 - - - - - - -
16.07.2018 03:00:00 - - - - - - -
16.07.2018 02:00:00 - - - - - - -
16.07.2018 01:00:00 - - - - - - -
16.07.2018 00:00:00 - - - - - - -
15.07.2018 23:00:00 - - - - - - -
15.07.2018 22:00:00 - - - - - - -
15.07.2018 21:00:00 - - - - - - -
15.07.2018 20:00:00 28,0 17,2 8 4 ENE 1011,8 16
15.07.2018 19:00:00 - - - - - - -
15.07.2018 18:00:00 - - - - - - -
15.07.2018 17:00:00 32,0 15,9 13 7 SO 1011,1 18
15.07.2018 16:00:00 - - - - - - -
15.07.2018 15:00:00 - - - - - - -
15.07.2018 14:00:00 32,4 11,6 11 6 SSO 1012,5 18
15.07.2018 13:00:00 - - - - - - -
15.07.2018 12:00:00 - - - - - - -
15.07.2018 11:00:00 28,4 15,3 0 0 N 1013,2 18
15.07.2018 10:00:00 - - - - - - -
15.07.2018 09:00:00 - - - - - - -
15.07.2018 08:00:00 21,0 16,0 0 0 N 1013,8 16
15.07.2018 07:00:00 - - - - - - -
15.07.2018 06:00:00 - - - - - - -
15.07.2018 05:00:00 - - - - - - -
15.07.2018 04:00:00 - - - - - - -
15.07.2018 03:00:00 - - - - - - -
15.07.2018 02:00:00 - - - - - - -
15.07.2018 01:00:00 - - - - - - -
15.07.2018 00:00:00 - - - - - - -
14.07.2018 23:00:00 - - - - - - -
14.07.2018 22:00:00 - - - - - - -
14.07.2018 21:00:00 - - - - - - -
14.07.2018 20:00:00 29,6 13,4 9 5 NO 1013,1 18
14.07.2018 19:00:00 - - - - - - -
14.07.2018 18:00:00 - - - - - - -
14.07.2018 17:00:00 32,0 12,3 0 0 N 1013,3 18
14.07.2018 16:00:00 - - - - - - -
14.07.2018 15:00:00 - - - - - - -
14.07.2018 14:00:00 32,0 12,8 11 6 O 1015,2 18
14.07.2018 13:00:00 - - - - - - -
14.07.2018 12:00:00 - - - - - - -
14.07.2018 11:00:00 27,4 14,4 0 0 N 1017,7 18
14.07.2018 10:00:00 - - - - - - -
14.07.2018 09:00:00 - - - - - - -
14.07.2018 08:00:00 18,6 14,7 0 0 N 1018,1 16
14.07.2018 07:00:00 - - - - - - -
14.07.2018 06:00:00 - - - - - - -
14.07.2018 05:00:00 - - - - - - -
14.07.2018 04:00:00 - - - - - - -
14.07.2018 03:00:00 - - - - - - -
14.07.2018 02:00:00 - - - - - - -
14.07.2018 01:00:00 - - - - - - -
14.07.2018 00:00:00 - - - - - - -
13.07.2018 23:00:00 - - - - - - -
13.07.2018 22:00:00 - - - - - - -
13.07.2018 21:00:00 - - - - - - -
13.07.2018 20:00:00 29,0 13,3 5 3 SSO 1015,1 18
13.07.2018 19:00:00 - - - - - - -
13.07.2018 18:00:00 - - - - - - -
13.07.2018 17:00:00 30,4 14,1 8 4 OSO 1015,4 18
13.07.2018 16:00:00 - - - - - - -
13.07.2018 15:00:00 - - - - - - -
13.07.2018 14:00:00 30,4 14,5 15 8 SO 1016,0 18
13.07.2018 13:00:00 - - - - - - -
13.07.2018 12:00:00 - - - - - - -
13.07.2018 11:00:00 27,0 13,7 4 2 ESE 1017,3 18
13.07.2018 10:00:00 - - - - - - -
13.07.2018 09:00:00 - - - - - - -
13.07.2018 08:00:00 19,0 15,1 0 0 N 1017,6 14
13.07.2018 07:00:00 - - - - - - -
13.07.2018 06:00:00 - - - - - - -
13.07.2018 05:00:00 - - - - - - -
13.07.2018 04:00:00 - - - - - - -
13.07.2018 03:00:00 - - - - - - -
13.07.2018 02:00:00 - - - - - - -
13.07.2018 01:00:00 - - - - - - -
13.07.2018 00:00:00 - - - - - - -
12.07.2018 23:00:00 - - - - - - -
12.07.2018 22:00:00 - - - - - - -
12.07.2018 21:00:00 - - - - - - -
12.07.2018 20:00:00 27,2 16,2 11 6 SO 1014,2 16
12.07.2018 19:00:00 - - - - - - -
12.07.2018 18:00:00 - - - - - - -
12.07.2018 17:00:00 29,2 14,2 13 7 SO 1014,0 16
12.07.2018 16:00:00 - - - - - - -
12.07.2018 15:00:00 - - - - - - -
12.07.2018 14:00:00 27,8 14,8 8 4 SO 1014,1 16
12.07.2018 13:00:00 - - - - - - -
12.07.2018 12:00:00 - - - - - - -
12.07.2018 11:00:00 25,8 16,9 9 5 OSO 1014,3 16
12.07.2018 10:00:00 - - - - - - -
12.07.2018 09:00:00 - - - - - - -
12.07.2018 08:00:00 20,8 18,0 0 0 N 1014,5 14
12.07.2018 07:00:00 - - - - - - -
12.07.2018 06:00:00 - - - - - - -
12.07.2018 05:00:00 - - - - - - -
12.07.2018 04:00:00 - - - - - - -
12.07.2018 03:00:00 - - - - - - -
12.07.2018 02:00:00 - - - - - - -
12.07.2018 01:00:00 - - - - - - -
12.07.2018 00:00:00 - - - - - - -
11.07.2018 23:00:00 - - - - - - -
11.07.2018 22:00:00 - - - - - - -
11.07.2018 21:00:00 - - - - - - -
11.07.2018 20:00:00 26,4 18,5 9 5 S 1010,4 18
11.07.2018 19:00:00 - - - - - - -
11.07.2018 18:00:00 - - - - - - -
11.07.2018 17:00:00 26,4 18,8 8 4 SSO 1010,4 18
11.07.2018 16:00:00 - - - - - - -
11.07.2018 15:00:00 - - - - - - -
11.07.2018 14:00:00 28,8 15,4 11 6 S 1010,7 18
11.07.2018 13:00:00 - - - - - - -
11.07.2018 12:00:00 - - - - - - -
11.07.2018 11:00:00 26,4 17,5 9 5 S 1011,3 18
11.07.2018 10:00:00 - - - - - - -
11.07.2018 09:00:00 - - - - - - -
11.07.2018 08:00:00 19,6 15,7 5 3 SSO 1011,9 18
11.07.2018 07:00:00 - - - - - - -
11.07.2018 06:00:00 - - - - - - -
11.07.2018 05:00:00 - - - - - - -
11.07.2018 04:00:00 - - - - - - -
11.07.2018 03:00:00 - - - - - - -
11.07.2018 02:00:00 - - - - - - -
11.07.2018 01:00:00 - - - - - - -
11.07.2018 00:00:00 - - - - - - -
10.07.2018 23:00:00 - - - - - - -
10.07.2018 22:00:00 - - - - - - -
10.07.2018 21:00:00 - - - - - - -
10.07.2018 20:00:00 23,8 20,7 5 3 SO 1011,7 16

tt = Temperatura
td = dewpoint
ff = velocità del vento
dd = direzione del vento
ppp = reduced air pressure
vv = visibility

Stazioni seguenti

WeatherPro
AMSI
MeteoEarth